Location: Mentone
(34.5413°N, 85.5351°W)
Time: 06:06:42
(UTC-05:00)

ADEOS Rocket - Visible Passes

Search period start: 30 July 2014 00:00
Search period end: 09 August 2014 00:00
Orbit: 858 x 1308 km, 98.7° (Epoch: 29 July)

Date Brightness Start Highest point End Pass type
(mag) Time Alt. Az. Time Alt. Az. Time Alt. Az.
30 Jul 3.0 21:36:24 35° SE 21:38:52 59° ENE 21:44:29 10° N visible
30 Jul 5.0 23:23:22 15° WSW 23:24:35 16° W 23:28:08 10° WNW visible
31 Jul 4.2 20:46:58 15° ESE 20:50:14 23° ENE 20:54:34 10° NNE visible
31 Jul 3.7 22:33:56 37° SW 22:35:31 44° W 22:40:59 10° NNW visible
01 Aug 2.9 21:44:30 41° SE 21:46:38 71° ENE 21:52:17 10° N visible
01 Aug 5.2 23:31:28 12° WSW 23:32:28 13° W 23:34:59 10° WNW visible
02 Aug 4.0 20:55:04 18° ESE 20:57:57 27° ENE 21:02:34 10° NNE visible
02 Aug 4.0 22:42:02 33° SW 22:43:19 36° W 22:48:33 10° NNW visible
03 Aug 2.8 21:52:36 48° SSE 21:54:24 83° ENE 22:00:02 10° N visible
04 Aug 3.8 21:03:09 22° ESE 21:05:41 31° ENE 21:10:31 10° N visible
04 Aug 4.2 22:50:07 29° WSW 22:51:08 30° W 22:56:03 10° NW visible
05 Aug 4.8 20:15:43 10° ENE 20:17:17 11° ENE 20:18:49 10° NE visible
05 Aug 2.8 22:00:41 53° S 22:02:10 83° WSW 22:07:46 10° NNW visible
06 Aug 3.5 21:11:15 27° ESE 21:13:24 36° ENE 21:18:26 10° N visible
06 Aug 4.4 22:58:12 24° WSW 22:58:57 25° W 23:03:30 10° NW visible
07 Aug 4.6 20:22:20 10° E 20:24:57 13° ENE 20:27:31 10° NE visible
07 Aug 2.9 22:08:46 55° SSW 22:09:57 69° WSW 22:15:29 10° NNW visible
08 Aug 3.3 21:19:19 33° ESE 21:21:08 43° ENE 21:26:19 10° N visible
08 Aug 4.7 23:06:17 20° WSW 23:06:47 20° W 23:10:51 10° NW visible
